STARLINK-2020 (47642 NORAD) Tracking and Keplerian Element Data

This shows tracking and keplerian element data for the satellite.

Feedback or suggestion? Click here.




ElementValue
Catalog47642
NameSTARLINK-2020
Epoch Orbit176
Epoch Day101.91668981
Epoch Year2021
RAAN195.4511
Inclination53.051
Eccentricity0.0001432
Argument of Perigee56.7711
Mean Anonmoly23.9141
Mean Motion15.26812001
Decay Rate-0.01063382
L11 47642U 21012Y 21101.91668981 -.01063382 00000-0 -43447-1 0 9990
L22 47642 53.0510 195.4511 0001432 56.7711 23.9141 15.26812001 1762

Live tracking and technical data element details for STARLINK-2020 (NORAD 47642). STARLINK-2020 can be tracked NOW for your location showing map with azimuth and elevation plus other details from your city location.

Track the satellite on the map from your city or location and see movement details for azimuth, elevation, latitude, longitude, range, height, and movement on the map or in text.







IsCatalogInMostPopularTable: catalog: 47642, numindb: 17
Update: records affected: 1



GetName: 47642 STARLINK-2020

Hit Count: updated at: Tue, 13 Apr 2021 04:44:49 GMT